Location: Powder Track
(41.8531°N, 72.3584°W)
Time: 22:31:33
(UTC+00:00)

Vanguard 2 Rocket - Pass Details

Date: 09 August 2021
Orbit: 555 x 3324 km, 32.9° (Epoch: 18 September)

Event Time Altitude Azimuth Distance (km) Brightness Sun altitude
Rises 08:36:24 0° 226° (SW) 4,998 - -13.1°
Reaches altitude 10° 08:41:06 10° 214° (SW) 3,476 - -12.4°
Exits shadow 08:41:45 12° 212° (SSW) 3,274 9.2 -12.3°
Maximum altitude 08:47:04 22° 168° (SSE) 2,047 8.5 -11.5°
Drops below altitude 10° 08:51:18 10° 117° (ESE) 2,365 9.5 -10.8°
Sets 08:53:48 0° 101° (E) 3,067 10.4 -10.4°
